Location: *
(45.1961°N, 1.9694°E)
Time: 22:20:04
(UTC+00:00)

Cosmos 1553 Rocket - Pass Details

Date: 25 August 2019
Orbit: 942 x 1007 km, 82.9° (Epoch: 21 September)

Event Time Altitude Azimuth Distance (km) Brightness Sun altitude
Rises 19:48:23 0° 187° (S) 3,662 6.8 -11.5°
Reaches altitude 10° 19:50:52 10° 188° (S) 2,728 6.1 -11.9°
Maximum altitude 19:57:09 87° 277° (W) 1,001 4.1 -12.9°
Drops below altitude 10° 20:03:34 10° 8° (N) 2,784 6.7 -13.9°
Sets 20:06:08 0° 9° (N) 3,743 7.4 -14.2°
